Accueil
METAR-TAF:

METAR-TAF

Aéroports :

Muir Army Airfield

Fort Indiantown Gap, Pennsylvanie, États-Unis

latitude: 40-26N, longitude: 076-34W, altitude: 149 m

Observation

Le bulletin a été fait il y a 46 minutes, à 09:56 UTC
Vent 3 kt de nord-est
Température -4°C
Humidité 68%
Pression 1020 hPa
Visibilité: 16.1 km
Ciel clair

METAR: KMUI 100956Z AUTO 05003KT 10SM CLR M04/M09 A3011 RMK AO2 SLP206 T10441092 $

Heure: 05:42 (10:42 UTC)


TAF: absent

Observations et prévisions météorologiques de plus de 4000 aéroports (messages METAR et TAF).

Les stations disponibles sont représentées par des disques jaunes et rouges sur la carte.

Passer la souris dessus pour voir le nom de la station.

Cliquer dessus pour voir les observations et prévisions météorologiques.

Pour changer de carte: cliquez sur les boutons verts avec une croix noire pour zoomer, sur le bouton vert avec un tiret pour effectuer un zoom arrière, ou sur les flèches vertes pour les cartes adjacentes.


METAR-TAF: